When you browse on this site, cookies collect data to enhance your experience and personalize the content and advertising you see.
Visit our Privacy Policy to learn more. By continuing to use the site, you agree to this use of cookies and data.
  • In Latvia
  • List of Countries
  • For 7 days
  • Water Temperature
  • Satellite Maps
  • Weather Map
  • Weather Widgets
  • user-avatar
    Login

    Hourly Weather Rapperswil

    Today, 15 July, Monday

    Time Temperature Precipitation Wind Pressure Humidity
    00:00 +15°C° 0.4 mm 1 mps 721 mmHg 96%
    01:00 +14°C° 0 mm 1 mps 721 mmHg 96%
    02:00 +14°C° 0.1 mm 1 mps 721 mmHg 96%
    03:00 +14°C° 0.1 mm 1 mps 721 mmHg 96%
    04:00 +13°C° 0.1 mm 1 mps 721 mmHg 96%
    05:00 +14°C° 0.1 mm 1 mps 721 mmHg 95%
    06:00 +14°C° 0.1 mm 1 mps 721 mmHg 94%
    07:00 +15°C° 0 mm 2 mps 721 mmHg 95%
    08:00 +16°C° 0.1 mm 2 mps 721 mmHg 92%
    09:00 +16°C° 0.1 mm 2 mps 721 mmHg 90%
    10:00 +17°C° 0.1 mm 2 mps 721 mmHg 87%
    11:00 +18°C° 0.1 mm 2 mps 721 mmHg 83%
    12:00 +19°C° 0.1 mm 2 mps 721 mmHg 78%
    13:00 +20°C° 0 mm 2 mps 722 mmHg 74%
    14:00 +21°C° 0.2 mm 2 mps 722 mmHg 72%
    15:00 +21°C° 0.2 mm 2 mps 722 mmHg 71%
    16:00 +23°C° 0.2 mm 2 mps 722 mmHg 69%
    17:00 +21°C° 0.5 mm 2 mps 722 mmHg 77%
    18:00 +20°C° 0.5 mm 2 mps 722 mmHg 84%
    19:00 +20°C° 0.5 mm 1 mps 722 mmHg 92%
    20:00 +18°C° 0 mm 1 mps 722 mmHg 93%
    21:00 +16°C° 0 mm 1 mps 722 mmHg 94%
    22:00 +14°C° 0 mm 0 mps 722 mmHg 96%
    23:00 +13°C° 0 mm 0 mps 723 mmHg 96%

    Tomorrow, 16 July, Tuesday

    Time Temperature Precipitation Wind Pressure Humidity
    00:00 +13°C° 0 mm 0 mps 723 mmHg 96%
    01:00 +13°C° 0 mm 0 mps 723 mmHg 95%
    02:00 +12°C° 0 mm 0 mps 723 mmHg 95%
    03:00 +12°C° 0 mm 0 mps 723 mmHg 95%
    04:00 +11°C° 0 mm 0 mps 723 mmHg 95%
    05:00 +13°C° 0 mm 0 mps 723 mmHg 94%
    06:00 +14°C° 0 mm 0 mps 723 mmHg 93%
    07:00 +15°C° 0 mm 0 mps 723 mmHg 92%
    08:00 +17°C° 0 mm 0 mps 723 mmHg 83%
    09:00 +21°C° 0 mm 1 mps 723 mmHg 74%
    10:00 +23°C° 0 mm 1 mps 724 mmHg 65%
    11:00 +24°C° 0 mm 1 mps 723 mmHg 59%
    12:00 +26°C° 0 mm 1 mps 723 mmHg 54%
    13:00 +27°C° 0 mm 2 mps 723 mmHg 48%
    14:00 +27°C° 0 mm 2 mps 723 mmHg 47%
    15:00 +27°C° 0 mm 2 mps 723 mmHg 46%
    16:00 +27°C° 0 mm 2 mps 723 mmHg 46%
    17:00 +25°C° 0 mm 1 mps 723 mmHg 53%
    18:00 +24°C° 0 mm 1 mps 723 mmHg 61%
    19:00 +23°C° 0 mm 1 mps 723 mmHg 68%
    20:00 +21°C° 0 mm 1 mps 723 mmHg 72%
    21:00 +19°C° 0 mm 1 mps 723 mmHg 75%
    22:00 +16°C° 0 mm 1 mps 723 mmHg 79%
    23:00 +16°C° 0 mm 1 mps 723 mmHg 80%

    Day after tomorrow, 17 July, Wednesday

    Time Temperature Precipitation Wind Pressure Humidity
    00:00 +15°C° 0 mm 1 mps 723 mmHg 81%
    01:00 +15°C° 0 mm 1 mps 723 mmHg 83%
    02:00 +15°C° 0 mm 1 mps 722 mmHg 83%
    03:00 +14°C° 0 mm 1 mps 722 mmHg 83%
    04:00 +14°C° 0 mm 1 mps 722 mmHg 83%
    05:00 +15°C° 0 mm 0 mps 722 mmHg 79%
    06:00 +16°C° 0 mm 0 mps 722 mmHg 76%
    07:00 +18°C° 0 mm 0 mps 722 mmHg 72%
    08:00 +20°C° 0 mm 0 mps 722 mmHg 66%
    09:00 +24°C° 0 mm 1 mps 722 mmHg 60%
    10:00 +26°C° 0 mm 1 mps 722 mmHg 54%
    11:00 +26°C° 0 mm 1 mps 722 mmHg 51%
    12:00 +27°C° 0 mm 2 mps 722 mmHg 47%
    13:00 +28°C° 0 mm 2 mps 721 mmHg 44%
    14:00 +28°C° 0 mm 2 mps 721 mmHg 45%
    15:00 +27°C° 0 mm 2 mps 721 mmHg 45%
    16:00 +27°C° 0 mm 2 mps 721 mmHg 45%
    17:00 +26°C° 0.1 mm 2 mps 721 mmHg 57%
    18:00 +24°C° 0.1 mm 1 mps 721 mmHg 67%
    19:00 +23°C° 0.1 mm 1 mps 721 mmHg 76%
    20:00 +21°C° 0 mm 1 mps 721 mmHg 79%
    21:00 +20°C° 0 mm 1 mps 721 mmHg 82%
    22:00 +18°C° 0 mm 1 mps 721 mmHg 85%
    23:00 +18°C° 0 mm 1 mps 721 mmHg 85%

    18 July, Thursday

    Time Temperature Precipitation Wind Pressure Humidity
    00:00 +16°C° 0 mm 1 mps 721 mmHg 86%
    01:00 +16°C° 0 mm 1 mps 721 mmHg 87%
    02:00 +16°C° 0 mm 1 mps 720 mmHg 87%
    03:00 +16°C° 0 mm 1 mps 720 mmHg 87%
    04:00 +16°C° 0 mm 1 mps 720 mmHg 87%
    05:00 +18°C° 0 mm 1 mps 720 mmHg 85%
    06:00 +17°C° 0 mm 0 mps 721 mmHg 83%
    07:00 +18°C° 0 mm 0 mps 721 mmHg 81%
    08:00 +21°C° 0 mm 1 mps 721 mmHg 73%
    09:00 +23°C° 0 mm 1 mps 721 mmHg 65%
    10:00 +24°C° 0 mm 2 mps 721 mmHg 57%
    11:00 +25°C° 0 mm 2 mps 721 mmHg 54%
    12:00 +26°C° 0 mm 2 mps 721 mmHg 52%
    13:00 +26°C° 0 mm 3 mps 721 mmHg 50%
    14:00 +26°C° 0.1 mm 2 mps 721 mmHg 50%
    15:00 +26°C° 0.1 mm 2 mps 721 mmHg 51%
    16:00 +26°C° 0.1 mm 2 mps 721 mmHg 52%
    17:00 +25°C° 0.1 mm 2 mps 721 mmHg 59%
    18:00 +24°C° 0.1 mm 1 mps 721 mmHg 66%
    19:00 +22°C° 0.1 mm 1 mps 721 mmHg 73%
    20:00 +21°C° 0 mm 1 mps 721 mmHg 75%
    21:00 +20°C° 0 mm 1 mps 722 mmHg 77%
    22:00 +18°C° 0 mm 1 mps 722 mmHg 78%
    23:00 +18°C° 0 mm 1 mps 722 mmHg 79%

    19 July, Friday

    Time Temperature Precipitation Wind Pressure Humidity
    00:00 +16°C° 0 mm 1 mps 722 mmHg 80%
    01:00 +16°C° 0 mm 1 mps 722 mmHg 81%
    02:00 +16°C° 0 mm 1 mps 722 mmHg 81%
    03:00 +16°C° 0 mm 1 mps 722 mmHg 81%
    04:00 +16°C° 0 mm 1 mps 722 mmHg 81%
    05:00 +18°C° 0 mm 1 mps 722 mmHg 79%
    06:00 +19°C° 0 mm 1 mps 722 mmHg 76%
    07:00 +20°C° 0 mm 1 mps 723 mmHg 74%
    08:00 +22°C° 0 mm 1 mps 723 mmHg 67%
    09:00 +24°C° 0 mm 1 mps 723 mmHg 59%
    10:00 +26°C° 0 mm 1 mps 723 mmHg 52%
    11:00 +27°C° 0 mm 1 mps 723 mmHg 49%
    12:00 +27°C° 0 mm 1 mps 723 mmHg 47%
    13:00 +28°C° 0 mm 2 mps 723 mmHg 45%
    14:00 +28°C° 0 mm 2 mps 723 mmHg 46%
    15:00 +28°C° 0 mm 2 mps 723 mmHg 47%
    16:00 +28°C° 0 mm 2 mps 723 mmHg 48%
    17:00 +27°C° 0 mm 1 mps 723 mmHg 57%
    18:00 +25°C° 0 mm 1 mps 723 mmHg 66%
    19:00 +24°C° 0 mm 1 mps 723 mmHg 75%
    20:00 +22°C° 0 mm 1 mps 723 mmHg 80%
    21:00 +21°C° 0 mm 1 mps 724 mmHg 84%
    22:00 +19°C° 0 mm 1 mps 724 mmHg 89%
    23:00 +18°C° 0 mm 1 mps 724 mmHg 89%

    20 July, Saturday

    Time Temperature Precipitation Wind Pressure Humidity
    00:00 +18°C° 0 mm 1 mps 724 mmHg 90%
    01:00 +18°C° 0 mm 1 mps 724 mmHg 90%
    02:00 +18°C° 0 mm 1 mps 724 mmHg 90%
    03:00 +18°C° 0 mm 1 mps 724 mmHg 90%
    04:00 +18°C° 0 mm 1 mps 724 mmHg 90%
    05:00 +19°C° 0 mm 1 mps 724 mmHg 86%
    06:00 +20°C° 0 mm 1 mps 724 mmHg 83%
    07:00 +19°C° 0 mm 0 mps 724 mmHg 80%
    08:00 +22°C° 0 mm 0 mps 724 mmHg 72%
    09:00 +26°C° 0 mm 1 mps 725 mmHg 64%
    10:00 +28°C° 0 mm 1 mps 725 mmHg 56%
    11:00 +29°C° 0.3 mm 1 mps 725 mmHg 56%
    12:00 +29°C° 0.3 mm 1 mps 725 mmHg 56%
    13:00 +30°C° 0.3 mm 1 mps 724 mmHg 55%
    14:00 +29°C° 0.5 mm 1 mps 724 mmHg 55%
    15:00 +29°C° 0.5 mm 1 mps 725 mmHg 54%
    16:00 +29°C° 0.5 mm 2 mps 725 mmHg 54%
    17:00 +27°C° 1.2 mm 2 mps 725 mmHg 65%
    18:00 +25°C° 1.2 mm 2 mps 725 mmHg 76%
    19:00 +21°C° 1.2 mm 2 mps 725 mmHg 87%
    20:00 +20°C° 1.2 mm 2 mps 725 mmHg 88%
    21:00 +19°C° 1.2 mm 2 mps 725 mmHg 90%
    22:00 +18°C° 1.2 mm 2 mps 726 mmHg 91%
    23:00 +19°C° 1.3 mm 1 mps 726 mmHg 91%
    Show more